Flag for Germany Weather past 2 weeks in Hoyerswerda, Saxony, Germany

Now
34 °F

Low clouds.


Feels Like: 34 °F
Forecast: 31 / 38 °F
Wind: 2 mph from Northwest

Location: Cottbus

Current Time: Jan 25, 2015 at 5:36:17 PM

Latest Report: Jan 25, 2015 at 5:00 PM


Visibility: 8 mi

Pressure: 30.29 "Hg

Humidity: 94%

Dew point: 32 °F

Location of HoyerswerdaLocation

Historic Weather in Hoyerswerda — Graph

°F

Hoyerswerda temperature yesterday

Maximum temperature yesterday: 31 °F (at 3:00 PM)
Minimum temperature yesterday: 30 °F (at 5:00 AM)
Average temperature yesterday: 31 °F

Past Weeks' High & Low Weather Summary

 TemperatureHumidityPressure
High58 °F (Jan 10, 5:00 PM)100% (Jan 17, 9:00 PM)30.30 "Hg (Jan 17, 9:00 PM)
Low25 °F (Jan 19, 3:00 AM)41% (Jan 13, 8:00 PM)29.47 "Hg (Jan 10, 5:00 PM)
Average37 °F83%29.94 "Hg
* Reported Jan 10 4:00 PM — Jan 25 4:00 PM, Hoyerswerda, Weather by CustomWeather, © 2014

Note: Actual official high and low records may vary slightly from our data, if they occured in-between our weather recording intervals... More about our weather records

Advertising

Hoyerswerda weather history for previous 24 hours

 ConditionsComfort  
Time TempWeatherWind HumidityBarometerVisibility
4:00 PM
Jan 25
35 °FDrizzle. Low clouds.2 mph93%30.28 "Hg6 mi
3:00 PM35 °FLow clouds.3 mph91%30.27 "Hg10 mi
2:00 PM35 °FOvercast.2 mph90%30.26 "Hg11 mi
1:00 PM35 °FLow clouds.3 mph91%30.26 "Hg8 mi
12:00 PM35 °FLow clouds.3 mph93%30.27 "Hg7 mi
11:00 AM34 °FLow clouds.3 mph94%30.27 "Hg6 mi
10:00 AM34 °FFog.2 mph96%30.26 "Hg4 mi
9:00 AM33 °FFog.2 mph97%30.24 "Hg4 mi
8:00 AM33 °FFog.3 mph96%30.23 "Hg4 mi
7:00 AM33 °FFog.3 mph98%30.21 "Hg3 mi
6:00 AM33 °FLow clouds.2 mph100%30.19 "Hg1 mi
4:00 AM32 °FFog.2 mph99%30.16 "Hg1 mi
3:00 AM32 °FLow clouds.2 mph98%30.15 "Hg2 mi
2:00 AM31 °FSnow flurries. Low clouds.2 mph98%30.14 "Hg1 mi
1:00 AM31 °FFog.2 mph95%30.14 "Hg2 mi
12:00 AM31 °FFog.2 mph95%30.13 "Hg3 mi
11:00 PM
Jan 24
30 °FFog.2 mph94%30.12 "Hg3 mi
10:00 PM31 °FFog.2 mph94%30.13 "Hg4 mi
9:00 PM30 °FFog.2 mph95%30.12 "Hg2 mi
8:00 PM30 °FFog.1 mph94%30.11 "Hg2 mi
7:00 PM31 °FFog.1 mph92%30.10 "Hg4 mi
6:00 PM31 °FFog.1 mph90%30.09 "Hg4 mi
5:00 PM31 °FFog.2 mph89%30.09 "Hg4 mi
Weather by CustomWeather, © 2014

See weather overviewHow to use our weather pages